Chrysoupoli Airport, Greece

3:53 AM EET on February 12, 2016 (GMT +0200)
Megas Alexandros

Weather History for LGKV - April, 2013

Change the Weather History Date:

Sunday, April 21, 2013

  Actual Average Record
Temperature  
Mean Temperature 59 °F -  
Max Temperature 68 °F 62 °F 73 °F (2008)
Min Temperature 50 °F 48 °F 44 °F (2003)
Degree Days  
Heating Degree Days 6    
Growing Degree Days 9 (Base 50)    
Moisture  
Dew Point 47 °F    
Average Humidity 62    
Maximum Humidity 82    
Minimum Humidity 43    
Precipitation  
Precipitation 0.00 in - - ()
Sea Level Pressure  
Sea Level Pressure 29.97 in    
Wind  
Wind Speed 3 mph ()    
Max Wind Speed 12 mph    
Max Gust Speed -    
Visibility 6.2 miles    
Events      
Averages and records for this station are not official NWS values.
T = Trace of Precipitation, MM = Missing Value Source: Averaged Metar Reports

Daily Weather History Graph

Daily Weather History Graph

Search for Another Location

Airport or City:

Trip Planner

Search our weather history database for the weather conditions in past years. The results will help you decide how hot, cold, wet, or windy it might be!

Date:

Astronomy

Apr. 21, 2013 Rise Set
Actual Time 6:33 AM EEST 8:07 PM EEST
Civil Twilight 6:04 AM EEST 8:36 PM EEST
Nautical Twilight 5:29 AM EEST 9:11 PM EEST
Astronomical Twilight 4:52 AM EEST 9:49 PM EEST
Moon 3:31 PM EEST (4/21) 3:47 AM EEST (4/21)
Length of Visible Light 14h 32m
Length of Day
13h 34m
Waxing Gibbous, 77% of the Moon is Illuminated
Apr 21
Waxing Gibbous
Apr 25
Full
May 2
Last Quarter
May 10
New
May 18
First Quarter

Hourly Weather History & Observations

Time (EEST) Temp. Dew Point Humidity Pressure Visibility Wind Dir Wind Speed Gust Speed Precip Events Conditions
7:20 AM 50.0 °F 41.0 °F 71% 29.98 in 6.2 mi East 4.6 mph - N/A   Scattered Clouds
7:50 AM 50.0 °F 41.0 °F 71% 29.98 in 6.2 mi Calm Calm - N/A   Scattered Clouds
8:20 AM 50.0 °F 41.0 °F 71% 29.98 in 6.2 mi Calm Calm - N/A   Scattered Clouds
8:50 AM 51.8 °F 46.4 °F 82% 29.98 in 6.2 mi Calm Calm - N/A   Scattered Clouds
9:20 AM 51.8 °F 46.4 °F 82% 29.98 in 6.2 mi Calm Calm - N/A   Scattered Clouds
9:50 AM 55.4 °F 48.2 °F 77% 29.98 in 6.2 mi Calm Calm - N/A   Partly Cloudy
10:20 AM 55.4 °F 48.2 °F 77% 29.98 in 6.2 mi Calm Calm - N/A   Partly Cloudy
10:50 AM 62.6 °F 46.4 °F 55% 29.98 in 6.2 mi South 5.8 mph - N/A   Partly Cloudy
11:20 AM 62.6 °F 46.4 °F 55% 29.98 in 6.2 mi SW 10.4 mph - N/A   Partly Cloudy
11:50 AM 64.4 °F 46.4 °F 52% 29.98 in 6.2 mi SSW 10.4 mph - N/A   Scattered Clouds
12:20 PM 64.4 °F 46.4 °F 52% 29.98 in 6.2 mi SW 5.8 mph - N/A   Mostly Cloudy
12:50 PM 64.4 °F 46.4 °F 52% 29.98 in 6.2 mi SSW 4.6 mph - N/A   Mostly Cloudy
1:20 PM 64.4 °F 46.4 °F 52% 29.98 in 6.2 mi SSW 6.9 mph - N/A   Mostly Cloudy
1:50 PM 64.4 °F 46.4 °F 52% 29.98 in 6.2 mi Calm Calm - N/A   Mostly Cloudy
2:20 PM 64.4 °F 46.4 °F 52% 29.98 in 6.2 mi Calm Calm - N/A   Scattered Clouds
2:50 PM 68.0 °F 44.6 °F 43% 29.98 in 6.2 mi SE 4.6 mph - N/A   Mostly Cloudy
3:20 PM 68.0 °F 44.6 °F 43% 29.95 in 6.2 mi SSW 6.9 mph - N/A   Scattered Clouds
3:50 PM 68.0 °F 44.6 °F 43% 29.95 in 6.2 mi SW 8.1 mph - N/A   Partly Cloudy
4:20 PM 68.0 °F 44.6 °F 43% 29.92 in 6.2 mi WSW 10.4 mph - N/A   Partly Cloudy
4:50 PM 68.0 °F 46.4 °F 46% 29.92 in 6.2 mi West 11.5 mph - N/A   Scattered Clouds
5:20 PM 68.0 °F 46.4 °F 46% 29.92 in 6.2 mi WSW 4.6 mph - N/A   Mostly Cloudy
5:50 PM 62.6 °F 50.0 °F 63% 29.95 in 6.2 mi ENE 11.5 mph - N/A   Mostly Cloudy
6:20 PM 62.6 °F 50.0 °F 63% 29.95 in 6.2 mi Calm Calm - N/A   Mostly Cloudy
6:50 PM 62.6 °F 50.0 °F 63% 29.95 in 6.2 mi SSW 4.6 mph - N/A   Scattered Clouds
7:20 PM 62.6 °F 50.0 °F 63% 29.95 in 6.2 mi Calm Calm - N/A   Partly Cloudy
7:50 PM 60.8 °F 53.6 °F 77% 29.95 in 6.2 mi Calm Calm - N/A   Partly Cloudy
8:20 PM 60.8 °F 53.6 °F 77% 29.95 in 6.2 mi Calm Calm - N/A   Partly Cloudy
8:50 PM 59.0 °F 53.6 °F 82% 29.95 in 6.2 mi Calm Calm - N/A   Partly Cloudy
9:20 PM 59.0 °F 53.6 °F 82% 29.98 in 6.2 mi NE 4.6 mph - N/A   Partly Cloudy
9:50 PM 59.0 °F 51.8 °F 77% 30.01 in 6.2 mi NE 4.6 mph - N/A   Partly Cloudy